Location: Winthrop
(48.4780°N, 120.1850°W)
Time: 03:16:41
(UTC-08:00)

Vanguard 1 Rocket - Pass Details

Date: 04 December 2023
Orbit: 654 x 4218 km, 34.3° (Epoch: 24 February)

Event Time Altitude Azimuth Distance (km) Brightness Sun altitude
Rises 09:41:45 0° 268° (W) 6,310 11.4 13.6°
Reaches altitude 10° 09:47:32 10° 258° (WSW) 4,610 10.9 14.1°
Maximum altitude 09:55:57 24° 211° (SSW) 2,605 10.3 14.7°
Drops below altitude 10° 10:01:24 10° 159° (SSE) 2,860 12.7 15.1°
Sets 10:04:02 0° 144° (SE) 3,515 12.2 15.3°
